Location: Unspecified
(43.3116°N, 2.0147°W)
Time: 05:53:28
(UTC+02:00)

CZ-3 Stage 3 - Visible Passes

Search period start: 04 July 2022 00:00
Search period end: 14 July 2022 00:00
Orbit: 394 x 34781 km, 30.4° (Epoch: 30 June)

Date Brightness Start Highest point End Pass type
(mag) Time Alt. Az. Time Alt. Az. Time Alt. Az.
04 Jul 10.3 00:15:52 10° WNW 01:52:39 21° WNW 05:00:30 10° WNW visible
04 Jul 7.4 19:56:12 10° WSW 22:16:29 63° WSW 05:07:26 11° SSW visible
05 Jul 7.7 16:14:51 10° SSW 22:21:52 69° SE 01:35:37 11° SE visible
07 Jul 10.3 00:00:48 10° WNW 01:39:01 22° WNW 04:53:08 10° WNW visible
07 Jul 7.6 19:43:20 10° WSW 22:02:46 63° WSW 04:49:00 16° SW visible
08 Jul 7.8 16:02:11 10° SSW 22:09:45 68° SE 01:18:30 17° SE visible
09 Jul 10.3 23:45:54 10° W 01:25:21 23° WNW 04:45:16 10° WNW visible
10 Jul 7.8 19:30:28 10° WSW 21:48:57 64° WSW 04:33:12 18° SW visible
11 Jul 7.8 15:49:30 10° SSW 21:57:32 67° SE 01:03:08 21° SE visible
12 Jul 10.3 23:31:08 10° W 01:11:38 23° WNW 04:36:56 10° WNW visible
